Weather History for KHBR - May, 2013

Change the Weather History Date:

Thursday, May 23, 2013

  Actual Average Record
Temperature  
Mean Temperature 74 °F -  
Max Temperature 87 °F 83 °F 107 °F (2000)
Min Temperature 61 °F 57 °F 55 °F (2001)
Cooling Degree Days 8    
Growing Degree Days 24 (Base 50)    
Moisture  
Dew Point 61 °F    
Average Humidity 73    
Maximum Humidity 93    
Minimum Humidity 35    
Precipitation  
Precipitation 0.00 in - - ()
Sea Level Pressure  
Sea Level Pressure 29.95 in    
Wind  
Wind Speed 12 mph (ESE)    
Max Wind Speed 23 mph    
Max Gust Speed 30 mph    
Visibility 10 miles    
Events      
Averages and records for this station are not official NWS values.
T = Trace of Precipitation, MM = Missing Value Source: NWS Daily Summary

Daily Weather History Graph

Daily Weather History Graph

Search for Another Location

Airport or City:

Trip Planner

Search our weather history database for the weather conditions in past years. The results will help you decide how hot, cold, wet, or windy it might be!

Date:

Astronomy

May. 23, 2013 Rise Set
Actual Time 6:27 AM CDT 8:39 PM CDT
Civil Twilight 5:58 AM CDT 9:07 PM CDT
Nautical Twilight 5:23 AM CDT 9:42 PM CDT
Astronomical Twilight 4:45 AM CDT 10:21 PM CDT
Moon 7:16 PM CDT (5/23) 5:09 AM CDT (5/23)
Length of Visible Light 15h 09m
Length of Day
14h 11m
Waxing Gibbous, 97% of the Moon is Illuminated
May 23
Waxing Gibbous
May 24
Full
May 31
Last Quarter
Jun 8
New
Jun 16
First Quarter

Hourly Weather History & Observations

Time (CDT) Temp. Heat Index Dew Point Humidity Pressure Visibility Wind Dir Wind Speed Gust Speed Precip Events Conditions
12:53 AM 61.0 °F - 55.9 °F 83% 29.86 in 10.0 mi ESE 5.8 mph - N/A   Clear
1:53 AM 66.0 °F - 55.9 °F 70% 29.86 in 10.0 mi SE 10.4 mph - N/A   Clear
2:53 AM 66.9 °F - 57.9 °F 73% 29.86 in 10.0 mi SSE 12.7 mph - N/A   Clear
3:53 AM 66.9 °F - 59.0 °F 76% 29.87 in 10.0 mi ESE 9.2 mph - N/A   Clear
4:53 AM 63.0 °F - 59.0 °F 87% 29.86 in 10.0 mi ESE 6.9 mph - N/A   Clear
5:53 AM 61.0 °F - 59.0 °F 93% 29.88 in 10.0 mi East 6.9 mph - N/A   Clear
6:53 AM 61.0 °F - 59.0 °F 93% 29.89 in 10.0 mi ESE 6.9 mph - N/A   Clear
7:53 AM 64.9 °F - 61.0 °F 87% 29.91 in 10.0 mi ENE 9.2 mph - N/A   Clear
8:50 AM 68.0 °F - 62.6 °F 83% 29.98 in 10.0 mi East 15.0 mph - N/A   Mostly Cloudy
8:53 AM 68.0 °F - 63.0 °F 84% 29.95 in 10.0 mi East 16.1 mph - N/A   Overcast
9:25 AM 69.8 °F - 64.4 °F 83% 30.00 in 9.0 mi ESE 13.8 mph - N/A   Overcast
9:40 AM 71.6 °F - 64.4 °F 78% 30.00 in 8.0 mi ESE 15.0 mph 25.3 mph N/A   Overcast
9:53 AM 71.1 °F - 64.9 °F 81% 29.97 in 8.0 mi ESE 19.6 mph 26.5 mph N/A   Overcast
10:29 AM 73.4 °F - 64.4 °F 73% 30.01 in 8.0 mi ESE 15.0 mph 21.9 mph N/A   Overcast
10:53 AM 73.9 °F - 63.0 °F 68% 29.98 in 9.0 mi ESE 23.0 mph 28.8 mph N/A   Overcast
11:53 AM 79.0 °F - 61.0 °F 54% 29.99 in 10.0 mi ESE 19.6 mph 29.9 mph N/A   Overcast
12:53 PM 80.1 °F 81.1 °F 61.0 °F 52% 29.99 in 10.0 mi SE 18.4 mph 27.6 mph N/A   Overcast
1:53 PM 84.9 °F 83.9 °F 57.0 °F 38% 29.96 in 10.0 mi SE 20.7 mph 27.6 mph N/A   Mostly Cloudy
2:53 PM 86.0 °F 84.5 °F 55.0 °F 35% 29.95 in 10.0 mi SE 18.4 mph 28.8 mph N/A   Clear
3:53 PM 84.0 °F 83.5 °F 57.9 °F 41% 29.94 in 10.0 mi ESE 20.7 mph 25.3 mph N/A   Clear
4:53 PM 80.1 °F 81.2 °F 62.1 °F 54% 29.95 in 10.0 mi SE 12.7 mph - N/A   Clear
5:53 PM 78.1 °F - 64.0 °F 62% 29.96 in 10.0 mi ESE 13.8 mph - N/A   Mostly Cloudy
6:53 PM 75.0 °F - 64.0 °F 69% 29.96 in 10.0 mi East 16.1 mph 26.5 mph N/A   Mostly Cloudy
7:53 PM 73.0 °F - 64.0 °F 73% 29.94 in 10.0 mi East 15.0 mph 21.9 mph N/A   Clear
8:53 PM 71.1 °F - 66.0 °F 84% 29.96 in 10.0 mi East 16.1 mph - N/A   Clear
9:53 PM 69.1 °F - 64.9 °F 87% 29.99 in 10.0 mi East 13.8 mph - N/A   Clear
10:53 PM 66.0 °F - 64.0 °F 93% 30.04 in 10.0 mi East 10.4 mph - N/A   Clear
11:53 PM 66.0 °F - 63.0 °F 90% 30.04 in 10.0 mi East 16.1 mph - N/A   Clear